[[{"header":{"parameterUnit":"m.s-1","parameterCategory":2,"la1":30.2991,"la2":30.254,"lo1":-89.0895,"lo2":-89.0444,"dy":0.0017,"dx":0.0017,"nx":28,"ny":28,"refTime":"2024-06-21T21:00:00:Z","depth":"0","parameterNumber":2,"parameterNumberName":"U-component_of_CURRENTS"},"data":[0,0,0,0,0,0,0,0,0,0,0,0,0,0,0,0,0,0,0,0,0,0,0,0,0,0,0,0,0,0,0,0,0,0,0,0,0,0,0,0,0,0,0,0,0,0,0,0,0,0,0,0,0,0,0,0,0,0,0.2828,0.283,0,0.2976,0.2978,0.2979,0.3019,0.3019,0.3018,0.3018,0.3113,0.3116,0.3119,0,0,0,0,0,0,0,0,0,0,0,0,0,0.2611,0.2614,0.2828,0.283,0.2832,0.2976,0.2978,0.298,0.3019,0.3019,0.3018,0.3017,0.3112,0.3115,0.3119,0,0,0,0,0,0,0,0,0,0,0,0,0,0.2724,0.2615,0.2828,0.2872,0.2878,0.2976,0.2978,0.298,0.3019,0.3019,0.3018,0.3017,0.3111,0.3115,0.312,0.3165,0,0,0.3134,0.3136,0,0,0,0,0,0,0,0,0.2717,0.2731,0.2863,0.2869,0.2876,0.2981,0.2937,0.304,0.302,0.2962,0.3018,0.3017,0.3067,0.3075,0.3101,0.317,0.3174,0.3134,0.3137,0.3139,0.314,0,0,0,0,0,0,0,0.2709,0.2725,0.2883,0.2866,0.2873,0.2896,0.291,0.2957,0.3014,0.2967,0.2971,0.2993,0.3069,0.3096,0.3103,0.3175,0.3134,0.3138,0.3141,0.3143,0.3287,0.3288,0,0,0,0,0,0,0.2698,0.2718,0.2879,0.2888,0.2796,0.29,0.2916,0.2946,0.3015,0.3026,0.2994,0.2995,0.3089,0.3098,0.3107,0.3205,0.3139,0.3143,0.3146,0.3286,0.3287,0.3289,0,0,0,0,0,0,0.2693,0.2711,0.2873,0.2808,0.2831,0.2905,0.2938,0.2949,0.298,0.3036,0.3045,0.3014,0.3088,0.31,0.3158,0.3207,0.3145,0.3149,0.3285,0.3287,0.3288,0.3375,0,0,0,0,0,0,0.2686,0.2708,0.2731,0.2808,0.2834,0.2936,0.2939,0.2953,0.2997,0.2999,0.3057,0.3065,0.3089,0.3151,0.3162,0.3212,0.3153,0.3284,0.3286,0.3288,0.3371,0.3379,0.3386,0,0,0,0,0,0.2678,0.2713,0.2731,0.2751,0.2861,0.2937,0.2953,0.3,0.2998,0.3022,0.3059,0.3063,0.3171,0.3156,0.3169,0.3221,0.3283,0.3285,0.3287,0.3367,0.3377,0.3386,0,0,0,0,0,0,0.2634,0.2723,0.2744,0.2806,0.2868,0.2945,0.2978,0.3003,0.3053,0.3053,0.3088,0.31,0.3174,0.3174,0.3156,0.3263,0.3224,0.3229,0.3279,0.329,0.3297,0.3333,0.3157,0,0,0,0,0,0.2635,0.2684,0.2764,0.2814,0.2843,0.2908,0.2945,0.2979,0.3033,0.3054,0.3092,0.3132,0.3196,0.322,0.3268,0.3327,0.3365,0.3361,0.3369,0.3376,0.3412,0.352,0.3543,0.3297,0.3297,0.3297,0,0,0.2636,0.2689,0.272,0.2808,0.2857,0.2927,0.2928,0.2989,0.3056,0.3057,0.314,0.317,0.3218,0.3296,0.3326,0.33,0.3459,0.3379,0.3386,0.3418,0.3526,0.355,0.3572,0.3298,0.3298,0.3298,0,0,0.2671,0.2704,0.2763,0.2814,0.2895,0.2939,0.2955,0.3032,0.3071,0.3158,0.3178,0.324,0.3314,0.3371,0.3409,0.3486,0.3506,0.3476,0.3548,0.3653,0.3675,0.3696,0.3751,0.3776,0.3472,0.3472,0.3472,0,0.2676,0.2753,0.279,0.2859,0.291,0.2945,0.3018,0.3075,0.316,0.3211,0.3192,0.3344,0.3371,0.3499,0.3521,0.3514,0.3552,0.3512,0.3669,0.3689,0.3709,0.3761,0.3787,0.3476,0.3476,0.3475,0.3475,0,0.2763,0.282,0.2853,0.2954,0.301,0.307,0.315,0.3205,0.3246,0.3312,0.3434,0.3478,0.357,0.3579,0.3583,0.3724,0.3697,0.3677,0.3653,0.374,0.3787,0.3813,0.3483,0.3481,0.348,0.3479,0,0,0.2793,0.2896,0.291,0.2957,0.3059,0.3113,0.3222,0.334,0.3418,0.3498,0.3621,0.372,0.3731,0.3773,0.3775,0.3854,0.4005,0.382,0.3824,0.3892,0.4212,0.4168,0.4191,0.4014,0.402,0.4024,0.4182,0,0.2854,0.2966,0.3017,0.3127,0.3186,0.325,0.3346,0.3453,0.3535,0.3652,0.3737,0.3843,0.3809,0.3847,0.3933,0.3999,0.4082,0.3963,0.4105,0.4109,0.4075,0.4224,0.4136,0.4269,0.4207,0.4211,0.4215,0,0.2929,0.2991,0.3092,0.3199,0.3234,0.3302,0.3444,0.3541,0.3709,0.3779,0.3905,0.3963,0.4112,0.4052,0.4248,0.4172,0.4211,0.4246,0.4252,0.421,0.4116,0.4176,0.4318,0.423,0.4254,0.4251,0.4248,0,0.291,0.3044,0.311,0.3149,0.328,0.334,0.3421,0.3575,0.3663,0.3859,0.3952,0.4119,0.4214,0.4322,0.4397,0.434,0.4598,0.4523,0.4521,0.4515,0.4472,0.4453,0.4568,0.468,0.468,0.4679,0.4679,0,0.294,0.2996,0.3096,0.3129,0.3218,0.3326,0.3434,0.3547,0.3716,0.3838,0.4,0.4127,0.4292,0.4442,0.4483,0.4604,0.4677,0.4591,0.4588,0.4491,0.4474,0.4416,0.4341,0.4685,0.4684,0.4683,0.4682,0,0.2893,0.2962,0.3034,0.3159,0.3197,0.3257,0.3406,0.3498,0.3669,0.3841,0.3915,0.4176,0.4393,0.4536,0.4724,0.4713,0.4708,0.483,0.4683,0.466,0.4537,0.4469,0.4387,0.4259,0.4867,0.4867,0.4867,0,0.2883,0.2911,0.3011,0.3049,0.3095,0.3193,0.3268,0.3443,0.3546,0.3855,0.3944,0.4227,0.4409,0.4694,0.4783,0.4908,0.4739,0.4837,0.4719,0.4579,0.4502,0.426,0.4139,0.468,0.4679,0.4678,0.4677,0,0.2859,0.2874,0.2924,0.2995,0.3062,0.3132,0.3253,0.3321,0.3552,0.3726,0.3966,0.4144,0.4461,0.4606,0.4793,0.483,0.4626,0.4815,0.4744,0.4453,0.413,0.3987,0.4485,0.4668,0.4669,0.467,0.467,0.4671,0.2841,0.2851,0.2913,0.2967,0.3024,0.3081,0.3117,0.3264,0.3426,0.3666,0.388,0.4108,0.4406,0.4689,0.4691,0.4668,0.4563,0.4573,0.4528,0.4315,0.4117,0.4574,0.4699,0.47,0.4701,0.4702,0.4703,0,0.2861,0.2869,0.2904,0.2959,0.2971,0.3027,0.3121,0.3145,0.3286,0.3531,0.3733,0.407,0.4261,0.4423,0.4561,0.4439,0.4184,0.4322,0.3997,0.3911,0.443,0.4351,0.4318,0.4318,0.4318,0.4318,0.4318,0.4318,0.2887,0.2909,0.2904,0.2909,0.2926,0.2928,0.2955,0.2995,0.3115,0.3326,0.3511,0.3726,0.4099,0.4379,0.4355,0.4245,0.3911,0.3753,0.3673,0.4101,0.412,0.4138,0.405,0.3954,0.3954,0.3026,0.302,0.3015]},{"header":{"parameterUnit":"m.s-1","parameterCategory":2,"la1":30.2991,"la2":30.254,"lo1":-89.0895,"lo2":-89.0444,"dy":0.0017,"dx":0.0017,"nx":28,"ny":28,"refTime":"2024-06-21T21:00:00:Z","depth":"0","parameterNumber":3,"parameterNumberName":"V-component_of_CURRENTS"},"data":[0,0,0,0,0,0,0,0,0,0,0,0,0,0,0,0,0,0,0,0,0,0,0,0,0,0,0,0,0,0,0,0,0,0,0,0,0,0,0,0,0,0,0,0,0,0,0,0,0,0,0,0,0,0,0,0,0,0,-0.0311,-0.0311,0,-0.0322,-0.0322,-0.0322,-0.0396,-0.0398,-0.04,-0.0401,-0.0391,-0.0389,-0.0387,0,0,0,0,0,0,0,0,0,0,0,0,0,-0.042,-0.0418,-0.0311,-0.0311,-0.0311,-0.0322,-0.0322,-0.0322,-0.0396,-0.0398,-0.04,-0.0402,-0.0392,-0.0389,-0.0387,0,0,0,0,0,0,0,0,0,0,0,0,0,-0.0397,-0.0417,-0.0311,-0.0349,-0.0352,-0.0322,-0.0322,-0.0323,-0.0395,-0.0398,-0.0401,-0.0403,-0.0392,-0.039,-0.0387,-0.0317,0,0,-0.0378,-0.0377,0,0,0,0,0,0,0,0,-0.0398,-0.0393,-0.0343,-0.0346,-0.035,-0.036,-0.0357,-0.0319,-0.0395,-0.038,-0.0401,-0.0404,-0.0376,-0.0375,-0.0372,-0.0316,-0.0316,-0.0378,-0.0376,-0.0375,-0.0374,0,0,0,0,0,0,0,-0.0399,-0.0393,-0.0316,-0.0343,-0.0347,-0.0388,-0.0387,-0.0351,-0.0363,-0.0381,-0.0386,-0.0386,-0.0378,-0.0375,-0.0372,-0.0316,-0.0378,-0.0375,-0.0374,-0.0372,-0.0248,-0.0246,0,0,0,0,0,0,-0.0389,-0.0393,-0.0316,-0.0316,-0.038,-0.0383,-0.0382,-0.0355,-0.0364,-0.0368,-0.0383,-0.0389,-0.0378,-0.0376,-0.0372,-0.0295,-0.0375,-0.0372,-0.0371,-0.0249,-0.0247,-0.0245,0,0,0,0,0,0,-0.0391,-0.0381,-0.0315,-0.0357,-0.0352,-0.0378,-0.0347,-0.0353,-0.035,-0.0366,-0.0371,-0.0374,-0.038,-0.0376,-0.0336,-0.0295,-0.0371,-0.0368,-0.0251,-0.0249,-0.0246,-0.0137,0,0,0,0,0,0,-0.0394,-0.0381,-0.0346,-0.0355,-0.0349,-0.0274,-0.0344,-0.0352,-0.0345,-0.0353,-0.0358,-0.0361,-0.0382,-0.034,-0.0333,-0.0293,-0.0366,-0.0253,-0.025,-0.0247,-0.0142,-0.0131,-0.0121,0,0,0,0,0,-0.0397,-0.0315,-0.0343,-0.0334,-0.0302,-0.0271,-0.027,-0.0302,-0.0342,-0.0314,-0.0333,-0.0361,-0.0317,-0.0335,-0.0328,-0.0286,-0.0255,-0.0251,-0.0247,-0.0147,-0.0133,-0.0121,0,0,0,0,0,0,-0.0321,-0.0316,-0.0346,-0.0263,-0.0267,-0.0283,-0.0251,-0.0284,-0.0277,-0.0284,-0.0323,-0.0323,-0.0279,-0.0291,-0.0311,-0.0245,-0.0296,-0.029,-0.0222,-0.0209,-0.0198,-0.0181,-0.0364,0,0,0,0,0,-0.0294,-0.0249,-0.0259,-0.0197,-0.0192,-0.0225,-0.0216,-0.0237,-0.024,-0.0241,-0.0256,-0.0265,-0.0254,-0.024,-0.0232,-0.0173,-0.0212,-0.0149,-0.0138,-0.0129,-0.0111,-0.0148,-0.0139,-0.0234,-0.0234,-0.0234,0,0,-0.0248,-0.0241,-0.0214,-0.0182,-0.019,-0.0151,-0.0225,-0.019,-0.016,-0.0234,-0.019,-0.0218,-0.0231,-0.0184,-0.0166,-0.019,-0.0121,-0.0125,-0.0116,-0.0104,-0.0143,-0.0134,-0.0126,-0.0231,-0.0232,-0.0232,0,0,-0.0138,-0.0129,-0.0065,-0.0059,-0.0057,-0.0074,-0.0062,-0.0073,-0.0079,-0.0037,-0.0098,-0.0103,-0.0071,-0.0088,-0.0089,-0.0006,-0.0066,-0.0008,0.007,0.0036,0.0043,0.0049,0.0015,0.0017,0.0,0.0,0.0,0,-0.0087,-0.0012,-0.0039,0.0016,0.0031,-0.0035,0.0028,0.0031,0.0029,0.0038,-0.0004,-0.0003,-0.0024,0.0017,0.0028,0.0021,-0.0014,0.0024,0.0049,0.0054,0.0058,0.0022,0.0022,0.0006,0.0005,0.0005,0.0004,0,0.0054,0.0107,0.0151,0.0183,0.0202,0.0252,0.0234,0.0252,0.0221,0.0202,0.0225,0.0178,0.0168,0.0158,0.0122,0.0146,0.0106,0.0064,0.0017,0.0075,0.0032,0.0031,0.0014,0.0012,0.001,0.0009,0,0,0.0177,0.0238,0.0247,0.0277,0.0292,0.0323,0.038,0.0407,0.0443,0.0411,0.0451,0.0425,0.0355,0.0348,0.0285,0.0251,0.0238,0.0177,0.0172,0.0144,0.016,0.0134,0.0129,0.0193,0.0193,0.0194,0.0119,0,0.0285,0.0411,0.0409,0.0512,0.0571,0.0532,0.0591,0.0602,0.0588,0.0612,0.0541,0.0557,0.0442,0.0435,0.038,0.0284,0.024,0.0263,0.0108,0.0103,0.0074,0.0129,0.0146,0.0081,0.0117,0.0117,0.0117,0,0.0413,0.0477,0.0601,0.0666,0.0688,0.074,0.0793,0.0837,0.0844,0.0834,0.0801,0.0735,0.0689,0.0579,0.043,0.0447,0.0315,0.0223,0.0217,0.0157,0.0076,0.0028,0.0077,-0.0166,0.0114,0.0114,0.0115,0,0.0493,0.0604,0.07,0.0725,0.0797,0.0848,0.0884,0.0909,0.0967,0.0971,0.1005,0.0907,0.0886,0.0711,0.0505,0.0468,0.0337,0.0258,0.011,0.0105,0.0074,0.0067,-0.0127,0.0149,0.015,0.015,0.015,0,0.0606,0.0681,0.075,0.0805,0.0929,0.0941,0.1063,0.1081,0.1138,0.1236,0.1118,0.1174,0.0916,0.0804,0.0578,0.0357,0.0385,0.0143,0.0093,0.0113,0.011,-0.0141,-0.026,0.0147,0.0148,0.0148,0.0149,0,0.0684,0.0724,0.0842,0.0937,0.0972,0.1063,0.1187,0.1281,0.1309,0.1436,0.1452,0.1383,0.1245,0.0975,0.0713,0.048,0.0124,0.0163,0.0206,0.0163,-0.0216,-0.0327,-0.0543,-0.066,-0.0012,-0.0013,-0.0014,0,0.075,0.0815,0.0931,0.1014,0.1066,0.1196,0.1298,0.1363,0.1475,0.1585,0.167,0.1581,0.1569,0.1168,0.074,0.0355,0.0113,0.0096,0.0021,-0.0216,-0.0377,-0.0463,-0.0552,0.0016,0.0016,0.0016,0.0015,0,0.0878,0.0898,0.0988,0.1153,0.1276,0.1415,0.157,0.1684,0.1792,0.1901,0.204,0.2047,0.1676,0.13,0.0754,0.0476,-0.0061,0.0075,-0.0181,-0.0368,-0.046,-0.0602,0.0036,0.0012,0.0012,0.0012,0.0013,0.0013,0.0981,0.1063,0.118,0.1331,0.1466,0.1655,0.1796,0.1968,0.2171,0.2382,0.2338,0.2389,0.1816,0.1085,0.0662,-0.0108,-0.0109,-0.0348,-0.0461,-0.0526,-0.0642,-0.0006,-0.0082,-0.0082,-0.0082,-0.0082,-0.0082,0,0.1152,0.123,0.1365,0.1557,0.1713,0.1755,0.1996,0.215,0.2411,0.2594,0.2709,0.2445,0.1758,0.1025,-0.0012,-0.055,-0.0746,-0.0837,-0.097,-0.1037,-0.0482,-0.0486,-0.0638,-0.0638,-0.0637,-0.0637,-0.0637,-0.0637,0.1273,0.1424,0.1472,0.1755,0.1871,0.2104,0.2248,0.2463,0.2633,0.2865,0.2889,0.2855,0.2267,0.047,-0.0778,-0.1063,-0.1418,-0.1489,-0.1689,-0.1333,-0.1296,-0.1262,-0.1297,-0.1616,-0.1617,-0.2189,-0.2195,-0.2199]}],[{"header":{"parameterUnit":"m.s-1","parameterCategory":2,"la1":30.2991,"la2":30.254,"lo1":-89.0895,"lo2":-89.0444,"dy":0.0017,"dx":0.0017,"nx":28,"ny":28,"refTime":"2024-06-21T21:00:00:Z","depth":"2","parameterNumber":2,"parameterNumberName":"U-component_of_CURRENTS"},"data":[0,0,0,0,0,0,0,0,0,0,0,0,0,0,0,0,0,0,0,0,0,0,0,0,0,0,0,0,0,0,0,0,0,0,0,0,0,0,0,0,0,0,0,0,0,0,0,0,0,0,0,0,0,0,0,0,0,0,0.279,0.2792,0,0.2887,0.2887,0.2888,0.2934,0.2934,0.2935,0.2935,0.2923,0.2922,0.2922,0,0,0,0,0,0,0,0,0,0,0,0,0,0.2625,0.2627,0.279,0.2792,0.2794,0.2887,0.2887,0.2888,0.2933,0.2934,0.2935,0.2935,0.2923,0.2922,0.2921,0,0,0,0,0,0,0,0,0,0,0,0,0,0.27,0.2628,0.279,0.2832,0.2838,0.2887,0.2887,0.2888,0.2933,0.2934,0.2935,0.2936,0.2924,0.2923,0.2921,0.2897,0,0,0.2917,0.2917,0,0,0,0,0,0,0,0,0.2696,0.2705,0.2824,0.283,0.2836,0.2905,0.2825,0.2888,0.2933,0.289,0.2935,0.2936,0.2911,0.2911,0.2919,0.2896,0.2896,0.2917,0.2917,0.2916,0.2916,0,0,0,0,0,0,0,0.269,0.2701,0.2821,0.2826,0.2833,0.2841,0.2852,0.2837,0.2887,0.2894,0.2899,0.292,0.2912,0.292,0.2919,0.2896,0.2917,0.2916,0.2916,0.2915,0.2952,0.2954,0,0,0,0,0,0,0.2693,0.2697,0.2819,0.2825,0.2774,0.2843,0.2855,0.2876,0.289,0.2896,0.2919,0.2922,0.2922,0.292,0.2918,0.2984,0.2916,0.2915,0.2914,0.2951,0.2953,0.2955,0,0,0,0,0,0,0.2689,0.2702,0.2815,0.2768,0.2784,0.2846,0.2869,0.2878,0.2925,0.2912,0.2914,0.2963,0.2922,0.292,0.2922,0.298,0.2914,0.2913,0.2949,0.2951,0.2954,0.3053,0,0,0,0,0,0,0.2683,0.27,0.2723,0.2768,0.2787,0.2857,0.2869,0.2879,0.2938,0.2943,0.2949,0.2947,0.2923,0.2924,0.292,0.2977,0.2912,0.2946,0.295,0.2953,0.3048,0.3059,0.3068,0,0,0,0,0,0.2677,0.2719,0.2723,0.2739,0.2813,0.2859,0.2868,0.291,0.294,0.2956,0.2958,0.2948,0.2944,0.2923,0.2919,0.2977,0.2945,0.2949,0.2953,0.3043,0.3057,0.3068,0,0,0,0,0,0,0.2662,0.2729,0.2735,0.2794,0.2824,0.2869,0.29,0.2933,0.2952,0.2958,0.2951,0.2947,0.2991,0.2956,0.2934,0.2998,0.2951,0.2954,0.3021,0.3034,0.3044,0.3056,0.2911,0,0,0,0,0,0.2666,0.2711,0.2758,0.2801,0.2819,0.2862,0.2893,0.2919,0.2943,0.2957,0.2973,0.298,0.2998,0.2992,0.3001,0.3006,0.3012,0.3047,0.3058,0.3067,0.3075,0.3126,0.3143,0.2967,0.2967,0.2967,0,0,0.2671,0.2715,0.274,0.28,0.2825,0.2856,0.2882,0.2932,0.2979,0.2946,0.3016,0.3026,0.3013,0.3043,0.3058,0.3019,0.3123,0.3072,0.3079,0.3082,0.3132,0.315,0.3165,0.297,0.297,0.2969,0,0,0.268,0.2738,0.2759,0.2791,0.284,0.2875,0.2899,0.296,0.3009,0.3064,0.3068,0.3099,0.3128,0.3123,0.3125,0.3189,0.3194,0.3211,0.3251,0.3302,0.3317,0.333,0.3375,0.3391,0.3194,0.3194,0.3194,0,0.2677,0.2718,0.2771,0.2792,0.2829,0.2889,0.2912,0.2974,0.3036,0.3072,0.3101,0.3186,0.3172,0.3206,0.3232,0.3217,0.3246,0.3205,0.3317,0.333,0.3342,0.3384,0.3401,0.3199,0.3199,0.3198,0.3198,0,0.2683,0.2724,0.2745,0.2795,0.2837,0.2877,0.2955,0.3026,0.3112,0.316,0.3262,0.3274,0.331,0.3332,0.33,0.3377,0.3374,0.3345,0.3288,0.3366,0.3405,0.3421,0.3207,0.3205,0.3203,0.3202,0,0,0.2645,0.2732,0.2735,0.2771,0.2848,0.2893,0.2981,0.3068,0.315,0.3244,0.3339,0.3395,0.342,0.3423,0.3415,0.3454,0.3561,0.3436,0.3437,0.3485,0.369,0.3636,0.3647,0.3565,0.3567,0.357,0.3689,0,0.2626,0.2675,0.2723,0.2791,0.283,0.2919,0.2999,0.3089,0.3199,0.3307,0.3369,0.3458,0.3452,0.349,0.3531,0.3564,0.3606,0.3532,0.3603,0.3605,0.355,0.3665,0.3404,0.3484,0.3704,0.3707,0.3709,0,0.2601,0.265,0.2699,0.2818,0.2842,0.2899,0.3055,0.3135,0.3273,0.3353,0.3449,0.3514,0.3596,0.3587,0.3706,0.3669,0.3687,0.3713,0.3717,0.3641,0.358,0.3438,0.3504,0.3734,0.3732,0.373,0.3729,0,0.2563,0.2644,0.2697,0.2731,0.2858,0.2921,0.3007,0.3145,0.3226,0.3391,0.3472,0.3584,0.3671,0.3736,0.3798,0.3771,0.3927,0.3881,0.3851,0.3847,0.3623,0.3594,0.3961,0.3961,0.396,0.396,0.396,0,0.2541,0.2587,0.2695,0.2733,0.2815,0.2914,0.3022,0.3133,0.3267,0.3357,0.3491,0.3598,0.3722,0.3822,0.3845,0.3915,0.3968,0.3894,0.3888,0.3651,0.3624,0.3824,0.3806,0.3965,0.3964,0.3963,0.3962,0,0.2488,0.2554,0.2619,0.275,0.28,0.2862,0.301,0.3088,0.3242,0.3372,0.3431,0.3634,0.3792,0.3888,0.4004,0.3983,0.4038,0.4029,0.3747,0.3706,0.3912,0.3898,0.4036,0.4036,0.4035,0.4035,0.4034,0,0.2468,0.2501,0.2613,0.2653,0.2717,0.2821,0.289,0.3049,0.3138,0.3389,0.3448,0.3662,0.3773,0.3944,0.3976,0.4032,0.4055,0.3792,0.3682,0.3947,0.3927,0.3914,0.3901,0.3429,0.3423,0.3419,0.3416,0,0.2436,0.2469,0.2524,0.2598,0.2672,0.2735,0.2867,0.2914,0.3112,0.3236,0.3411,0.3524,0.3735,0.3711,0.3808,0.3787,0.3768,0.3707,0.4072,0.345,0.3383,0.336,0.3366,0.3377,0.3381,0.3384,0.3386,0.3387,0.2409,0.2415,0.2487,0.2526,0.2611,0.2652,0.2657,0.2793,0.2893,0.3046,0.3242,0.3333,0.3445,0.3484,0.3415,0.3389,0.3631,0.347,0.3479,0.3494,0.3403,0.3339,0.3307,0.331,0.3313,0.3316,0.3318,0,0.2332,0.2358,0.2421,0.2451,0.2457,0.2558,0.2636,0.2608,0.2657,0.2865,0.2978,0.2841,0.289,0.2989,0.2921,0.2956,0.2876,0.2819,0.2692,0.2737,0.2775,0.264,0.2345,0.2341,0.2338,0.2334,0,0,0.2308,0.2286,0.229,0.2263,0.2313,0.2288,0.2292,0.2296,0.2403,0.2433,0.2498,0.2762,0.2939,0.2595,0.2587,0.2457,0.2556,0.2363,0.3163,0.3061,0.3093,0.3195,0.3045,0,0,0,0,0]},{"header":{"parameterUnit":"m.s-1","parameterCategory":2,"la1":30.2991,"la2":30.254,"lo1":-89.0895,"lo2":-89.0444,"dy":0.0017,"dx":0.0017,"nx":28,"ny":28,"refTime":"2024-06-21T21:00:00:Z","depth":"2","parameterNumber":3,"parameterNumberName":"V-component_of_CURRENTS"},"data":[0,0,0,0,0,0,0,0,0,0,0,0,0,0,0,0,0,0,0,0,0,0,0,0,0,0,0,0,0,0,0,0,0,0,0,0,0,0,0,0,0,0,0,0,0,0,0,0,0,0,0,0,0,0,0,0,0,0,-0.0401,-0.0402,0,-0.045,-0.045,-0.045,-0.0518,-0.052,-0.0521,-0.0523,-0.0553,-0.0552,-0.0551,0,0,0,0,0,0,0,0,0,0,0,0,0,-0.0384,-0.0383,-0.0401,-0.0402,-0.0403,-0.045,-0.045,-0.045,-0.0518,-0.052,-0.0522,-0.0524,-0.0553,-0.0552,-0.0551,0,0,0,0,0,0,0,0,0,0,0,0,0,-0.0402,-0.0383,-0.0401,-0.0447,-0.0452,-0.045,-0.045,-0.045,-0.0517,-0.052,-0.0522,-0.0525,-0.0553,-0.0552,-0.0551,-0.0494,0,0,-0.0548,-0.0547,0,0,0,0,0,0,0,0,-0.0401,-0.0402,-0.0439,-0.0444,-0.0449,-0.0485,-0.0455,-0.0466,-0.0516,-0.0486,-0.0523,-0.0526,-0.053,-0.0531,-0.0527,-0.0495,-0.0496,-0.0548,-0.0547,-0.0546,-0.0546,0,0,0,0,0,0,0,-0.04,-0.0401,-0.0414,-0.044,-0.0446,-0.0472,-0.0476,-0.0457,-0.0489,-0.0489,-0.0496,-0.0509,-0.0533,-0.0528,-0.0528,-0.0497,-0.0548,-0.0547,-0.0546,-0.0545,-0.0497,-0.0497,0,0,0,0,0,0,-0.0401,-0.0399,-0.0413,-0.0417,-0.0438,-0.047,-0.0475,-0.0467,-0.049,-0.0497,-0.0507,-0.0512,-0.0529,-0.0529,-0.053,-0.0501,-0.0546,-0.0545,-0.0545,-0.0498,-0.0497,-0.0497,0,0,0,0,0,0,-0.04,-0.0401,-0.0411,-0.0415,-0.0419,-0.0468,-0.0458,-0.0466,-0.0477,-0.0505,-0.0511,-0.0513,-0.0531,-0.0531,-0.052,-0.0501,-0.0545,-0.0544,-0.0499,-0.0498,-0.0497,-0.0418,0,0,0,0,0,0,-0.0399,-0.0399,-0.0399,-0.0414,-0.0419,-0.04,-0.0456,-0.0466,-0.0484,-0.0491,-0.051,-0.0516,-0.0533,-0.0521,-0.0519,-0.05,-0.0543,-0.0499,-0.0498,-0.0497,-0.0422,-0.0415,-0.0409,0,0,0,0,0,-0.0398,-0.0373,-0.0397,-0.0401,-0.0414,-0.0399,-0.0402,-0.0444,-0.0482,-0.0466,-0.0492,-0.0516,-0.0514,-0.0519,-0.0516,-0.0497,-0.05,-0.0499,-0.0497,-0.0424,-0.0416,-0.0409,0,0,0,0,0,0,-0.0366,-0.0379,-0.0406,-0.0389,-0.0396,-0.0413,-0.0401,-0.0438,-0.0445,-0.0451,-0.0492,-0.0496,-0.0483,-0.0498,-0.0504,-0.0484,-0.0516,-0.0514,-0.0462,-0.0454,-0.0448,-0.0423,-0.0542,0,0,0,0,0,-0.0358,-0.0338,-0.0363,-0.0345,-0.0342,-0.0373,-0.0378,-0.0401,-0.0412,-0.0419,-0.0442,-0.0463,-0.0469,-0.047,-0.0472,-0.0444,-0.0473,-0.0438,-0.0432,-0.0426,-0.0406,-0.0437,-0.0431,-0.0492,-0.0492,-0.0492,0,0,-0.0339,-0.0346,-0.0336,-0.0337,-0.0338,-0.0322,-0.0378,-0.0363,-0.0359,-0.0416,-0.0406,-0.0433,-0.0458,-0.0438,-0.0435,-0.0451,-0.0426,-0.0424,-0.0419,-0.0402,-0.0435,-0.0429,-0.0424,-0.0491,-0.0492,-0.0492,0,0,-0.0272,-0.029,-0.0248,-0.0253,-0.0258,-0.0274,-0.0272,-0.0288,-0.03,-0.0286,-0.0342,-0.0359,-0.0355,-0.0382,-0.0392,-0.0349,-0.0391,-0.0356,-0.0298,-0.0329,-0.0324,-0.032,-0.0357,-0.0357,-0.0354,-0.0353,-0.0353,0,-0.0246,-0.0215,-0.0233,-0.0203,-0.0206,-0.0251,-0.0217,-0.0225,-0.0244,-0.0245,-0.027,-0.0293,-0.0326,-0.0321,-0.0318,-0.0333,-0.0358,-0.0323,-0.032,-0.0316,-0.0313,-0.0352,-0.0353,-0.035,-0.035,-0.035,-0.0351,0,-0.0152,-0.0145,-0.0113,-0.0097,-0.0096,-0.0067,-0.0093,-0.0085,-0.0112,-0.0141,-0.0136,-0.0177,-0.0195,-0.0218,-0.0251,-0.025,-0.0277,-0.0308,-0.0335,-0.0302,-0.0346,-0.0348,-0.0344,-0.0345,-0.0346,-0.0347,0,0,-0.0045,-0.0045,-0.0039,-0.0029,-0.0043,-0.0021,-0.0001,0.0004,0.0026,-0.0009,0.001,-0.003,-0.007,-0.0086,-0.014,-0.0173,-0.0193,-0.0223,-0.0227,-0.0252,-0.026,-0.0282,-0.0287,-0.0221,-0.022,-0.022,-0.0302,0,0.0035,0.0095,0.0072,0.0121,0.0146,0.0109,0.0135,0.0127,0.0116,0.0125,0.0062,0.0066,-0.0016,-0.0013,-0.0063,-0.0152,-0.0193,-0.0168,-0.0294,-0.0298,-0.0315,-0.0288,-0.0251,-0.032,-0.0304,-0.0305,-0.0305,0,0.0128,0.0149,0.021,0.022,0.0235,0.0264,0.03,0.0313,0.0298,0.0295,0.0269,0.0214,0.0161,0.0093,-0.004,-0.0018,-0.0127,-0.0207,-0.0212,-0.0255,-0.0322,-0.035,-0.0325,-0.0309,-0.0309,-0.0309,-0.0308,0,0.0204,0.0241,0.029,0.0292,0.0307,0.035,0.0367,0.0371,0.0408,0.0404,0.0434,0.0345,0.0327,0.0188,0.0009,-0.0009,-0.0142,-0.0194,-0.0318,-0.0322,-0.0325,-0.0329,-0.0285,-0.0285,-0.0285,-0.0284,-0.0284,0,0.028,0.0317,0.0338,0.0366,0.045,0.0432,0.0526,0.0536,0.0567,0.0626,0.0528,0.056,0.0354,0.0245,0.0061,-0.0126,-0.0107,-0.0293,-0.0336,-0.0299,-0.0299,-0.0317,-0.0319,-0.0287,-0.0287,-0.0286,-0.0286,0,0.034,0.0348,0.0406,0.0454,0.0485,0.0544,0.0633,0.0697,0.0719,0.0801,0.0811,0.0726,0.0589,0.0365,0.0137,-0.0039,-0.0229,-0.0308,-0.0253,-0.0288,-0.0406,-0.0404,-0.0445,-0.0446,-0.0447,-0.0448,-0.0449,0,0.0366,0.0406,0.048,0.0534,0.0566,0.0657,0.0728,0.0772,0.0853,0.0909,0.0961,0.0859,0.0793,0.0442,0.0126,-0.0186,-0.0233,-0.0355,-0.0387,-0.0381,-0.0419,-0.0415,-0.0411,-0.0372,-0.0372,-0.0372,-0.0372,0,0.0414,0.0446,0.0495,0.0612,0.0701,0.0801,0.0918,0.1005,0.1071,0.1145,0.1199,0.1147,0.0828,0.0518,0.0099,-0.0112,-0.0302,-0.0366,-0.0362,-0.0333,-0.0317,-0.0353,-0.035,-0.0372,-0.0372,-0.0372,-0.0372,-0.0372,0.0438,0.0483,0.0561,0.0665,0.079,0.0931,0.1034,0.1157,0.1286,0.1407,0.1358,0.1311,0.0951,0.0426,0.0051,-0.0318,-0.0309,-0.0438,-0.0436,-0.0434,-0.0406,-0.0392,-0.0457,-0.0458,-0.0458,-0.0459,-0.0459,0,0.0412,0.048,0.0607,0.0727,0.0874,0.0945,0.1147,0.1252,0.1408,0.1519,0.1556,0.125,0.0894,0.0499,-0.005,-0.0401,-0.0427,-0.05,-0.0455,-0.0451,-0.0449,-0.0421,-0.0478,-0.0479,-0.048,-0.0481,0,0,0.0389,0.0474,0.0542,0.0748,0.088,0.1082,0.1209,0.1374,0.1512,0.1611,0.1621,0.1535,0.1047,0.0646,0.0164,-0.0148,-0.0216,-0.0209,-0.0155,-0.0041,-0.0034,-0.0374,-0.0322,0,0,0,0,0]}],[{"header":{"parameterUnit":"m.s-1","parameterCategory":2,"la1":30.2991,"la2":30.254,"lo1":-89.0895,"lo2":-89.0444,"dy":0.0017,"dx":0.0017,"nx":28,"ny":28,"refTime":"2024-06-21T21:00:00:Z","depth":"4","parameterNumber":2,"parameterNumberName":"U-component_of_CURRENTS"},"data":[0,0,0,0,0,0,0,0,0,0,0,0,0,0,0,0,0,0,0,0,0,0,0,0,0,0,0,0,0,0,0,0,0,0,0,0,0,0,0,0,0,0,0,0,0,0,0,0,0,0,0,0,0,0,0,0,0,0,0.1454,0.1455,0,0.1537,0.1538,0.1538,0.1584,0.1585,0.1585,0.1586,0.172,0.1722,0.1725,0,0,0,0,0,0,0,0,0,0,0,0,0,0.13,0.1302,0.1453,0.1455,0.1456,0.1537,0.1538,0.1538,0.1584,0.1585,0.1585,0.1586,0.1719,0.1722,0.1726,0,0,0,0,0,0,0,0,0,0,0,0,0,0.1368,0.1303,0.1453,0.1492,0.1497,0.1537,0.1538,0.1539,0.1584,0.1585,0.1586,0.1586,0.1717,0.1722,0.1726,0.1737,0,0,0.174,0.1742,0,0,0,0,0,0,0,0,0.1364,0.1373,0.1485,0.149,0.1495,0.1555,0.1533,0.1609,0.1584,0.1546,0.1586,0.1587,0.1672,0.168,0.1686,0.1743,0.1749,0.1741,0.1743,0.1745,0.1747,0,0,0,0,0,0,0,0.136,0.137,0.1482,0.1487,0.1493,0.1495,0.1505,0.1547,0.16,0.1549,0.1554,0.1571,0.1674,0.1682,0.169,0.1751,0.174,0.1744,0.1747,0.1749,0.1925,0.1927,0,0,0,0,0,0,0.1361,0.1366,0.1479,0.1485,0.1436,0.1497,0.1509,0.1531,0.1599,0.1611,0.157,0.1573,0.1673,0.1685,0.1695,0.1812,0.1745,0.1749,0.1752,0.1923,0.1925,0.1927,0,0,0,0,0,0,0.1357,0.137,0.1476,0.143,0.1445,0.15,0.1524,0.1533,0.1577,0.1615,0.1627,0.1611,0.1675,0.1689,0.1771,0.1814,0.1752,0.1756,0.1921,0.1924,0.1926,0.1982,0,0,0,0,0,0,0.1352,0.1368,0.1398,0.1431,0.1448,0.1522,0.1524,0.1534,0.1586,0.1591,0.1653,0.1664,0.1676,0.1764,0.1776,0.1819,0.1759,0.1918,0.1922,0.1925,0.1978,0.1987,0.1994,0,0,0,0,0,0.1346,0.1382,0.1399,0.1414,0.1483,0.1524,0.1533,0.157,0.1588,0.1612,0.1663,0.1664,0.1795,0.177,0.1783,0.1828,0.1916,0.1921,0.1925,0.1974,0.1985,0.1994,0,0,0,0,0,0,0.1333,0.1391,0.1411,0.1464,0.1502,0.1534,0.157,0.1591,0.1647,0.1667,0.1695,0.171,0.1794,0.1806,0.1778,0.1889,0.1854,0.1861,0.1887,0.1897,0.1905,0.1903,0.1763,0,0,0,0,0,0.1344,0.1389,0.1433,0.148,0.1503,0.1542,0.1571,0.1596,0.1644,0.167,0.1714,0.1765,0.1815,0.1854,0.1893,0.1961,0.198,0.1997,0.2005,0.2012,0.2019,0.2084,0.2099,0.1942,0.1942,0.1941,0,0,0.1354,0.1393,0.1421,0.1482,0.1517,0.1558,0.1562,0.1618,0.1659,0.1677,0.176,0.1799,0.1839,0.1912,0.1951,0.1934,0.2069,0.2017,0.2023,0.2026,0.209,0.2106,0.2119,0.1945,0.1944,0.1944,0,0,0.1386,0.1432,0.1476,0.1511,0.1574,0.1596,0.1621,0.1673,0.1707,0.1782,0.1807,0.1873,0.1952,0.1985,0.2011,0.209,0.2108,0.211,0.2158,0.2221,0.2234,0.2246,0.2299,0.2315,0.2118,0.2118,0.2118,0,0.1397,0.1457,0.1494,0.1541,0.1578,0.1618,0.1664,0.1701,0.1776,0.1815,0.1821,0.1951,0.1981,0.207,0.2097,0.2108,0.2149,0.2116,0.2232,0.2244,0.2255,0.2306,0.2323,0.2121,0.2121,0.212,0.212,0,0.145,0.1507,0.1537,0.1609,0.165,0.1699,0.1749,0.1805,0.1852,0.1888,0.1991,0.2034,0.2114,0.2131,0.2142,0.2243,0.2248,0.2231,0.2204,0.2274,0.2323,0.234,0.2126,0.2124,0.2123,0.2123,0,0,0.145,0.1553,0.1568,0.1607,0.169,0.1724,0.1805,0.1879,0.1947,0.2011,0.2097,0.2172,0.2206,0.2237,0.2263,0.2313,0.2423,0.2317,0.2319,0.2364,0.2578,0.2427,0.2431,0.244,0.2443,0.2445,0.2583,0,0.1482,0.1568,0.1617,0.1701,0.1744,0.1807,0.1876,0.1952,0.2023,0.2116,0.2167,0.2262,0.2243,0.2306,0.2352,0.2415,0.247,0.2388,0.2507,0.2511,0.2364,0.2446,0.2455,0.2595,0.2599,0.2602,0.2604,0,0.1512,0.1568,0.165,0.1747,0.1775,0.1835,0.1957,0.2029,0.2155,0.2219,0.2315,0.2363,0.2466,0.2431,0.2564,0.2524,0.2562,0.2587,0.2593,0.2442,0.239,0.251,0.2634,0.2632,0.2629,0.2627,0.2626,0,0.1477,0.1588,0.1653,0.1686,0.1803,0.1865,0.1941,0.2068,0.2138,0.2306,0.2381,0.2494,0.2577,0.2639,0.2693,0.2659,0.2822,0.2775,0.2671,0.2661,0.2729,0.2715,0.2866,0.2866,0.2866,0.2865,0.2865,0,0.1473,0.153,0.1648,0.1683,0.1771,0.1865,0.1979,0.208,0.2223,0.2321,0.244,0.2527,0.2638,0.2729,0.2754,0.2768,0.288,0.2696,0.2691,0.2751,0.2737,0.2742,0.2725,0.287,0.2869,0.2868,0.2867,0,0.1423,0.1502,0.1578,0.1709,0.1755,0.1824,0.198,0.2054,0.2222,0.236,0.2422,0.259,0.2719,0.2799,0.2919,0.2838,0.2871,0.2848,0.2929,0.2925,0.2653,0.2638,0.2741,0.2737,0.2733,0.273,0.2728,0,0.1397,0.1435,0.1575,0.1617,0.1683,0.1797,0.1868,0.2038,0.2121,0.2376,0.2425,0.2614,0.271,0.2752,0.2848,0.2897,0.2855,0.285,0.2716,0.2657,0.2644,0.2634,0.2625,0.2722,0.2721,0.2721,0.272,0,0.1337,0.1403,0.1461,0.1552,0.1629,0.1713,0.1839,0.1878,0.209,0.2255,0.2381,0.2459,0.2597,0.2668,0.2732,0.2752,0.2837,0.2813,0.2818,0.2692,0.2636,0.2624,0.2618,0.2708,0.2709,0.2711,0.2711,0,0.1279,0.1303,0.1385,0.1455,0.1547,0.1601,0.1683,0.1787,0.1887,0.2161,0.2204,0.241,0.2581,0.2597,0.2659,0.2669,0.2614,0.2506,0.2526,0.2541,0.2408,0.2303,0.2286,0,0,0,0,0,0.1203,0.1216,0.1277,0.134,0.1432,0.1495,0.1645,0.1733,0.1932,0.1968,0.2082,0.2206,0.2312,0.2409,0.2379,0.2565,0.2616,0.2518,0.2499,0.2641,0.2655,0.2515,0,0,0,0,0,0,0.1142,0.1191,0.1228,0.1233,0.1261,0.135,0.1441,0.1584,0.1615,0.183,0.1894,0.2067,0.2192,0.2304,0.2333,0.2364,0.2307,0.2646,0.264,0.2633,0.2646,0.2657,0.2518,0,0,0,0,0]},{"header":{"parameterUnit":"m.s-1","parameterCategory":2,"la1":30.2991,"la2":30.254,"lo1":-89.0895,"lo2":-89.0444,"dy":0.0017,"dx":0.0017,"nx":28,"ny":28,"refTime":"2024-06-21T21:00:00:Z","depth":"4","parameterNumber":3,"parameterNumberName":"V-component_of_CURRENTS"},"data":[0,0,0,0,0,0,0,0,0,0,0,0,0,0,0,0,0,0,0,0,0,0,0,0,0,0,0,0,0,0,0,0,0,0,0,0,0,0,0,0,0,0,0,0,0,0,0,0,0,0,0,0,0,0,0,0,0,0,0.0132,0.0131,0,0.0032,0.003,0.0029,0.0001,0.0001,0.0002,0.0002,-0.0126,-0.013,-0.0134,0,0,0,0,0,0,0,0,0,0,0,0,0,0.026,0.0258,0.0132,0.013,0.0129,0.0032,0.003,0.0029,0.0001,0.0001,0.0002,0.0003,-0.0125,-0.0129,-0.0134,0,0,0,0,0,0,0,0,0,0,0,0,0,0.0186,0.0257,0.0132,0.0104,0.01,0.0032,0.003,0.0029,0.0,0.0001,0.0002,0.0003,-0.0123,-0.0129,-0.0135,-0.0189,0,0,-0.0153,-0.0156,0,0,0,0,0,0,0,0,0.019,0.0181,0.0109,0.0105,0.0101,0.003,0.0028,-0.0045,0.0,0.0038,0.0002,0.0003,-0.0077,-0.0087,-0.0107,-0.0195,-0.02,-0.0153,-0.0157,-0.016,-0.0161,0,0,0,0,0,0,0,0.0196,0.0185,0.0092,0.0108,0.0103,0.0082,0.0073,0.0014,-0.0024,0.0035,0.0033,0.0021,-0.0079,-0.0102,-0.0111,-0.0202,-0.0153,-0.0159,-0.0162,-0.0165,-0.031,-0.031,0,0,0,0,0,0,0.0209,0.019,0.0095,0.0089,0.0149,0.008,0.0069,0.0052,-0.0023,-0.0033,0.0021,0.0021,-0.0092,-0.0104,-0.0115,-0.016,-0.016,-0.0165,-0.0169,-0.031,-0.031,-0.031,0,0,0,0,0,0,0.0212,0.0201,0.0099,0.0138,0.0124,0.0077,0.0057,0.0049,0.003,-0.0033,-0.0043,0.0011,-0.0092,-0.0107,-0.0161,-0.0166,-0.0168,-0.0173,-0.0309,-0.031,-0.031,-0.0264,0,0,0,0,0,0,0.0216,0.0203,0.0191,0.0139,0.0122,0.0061,0.0056,0.0047,0.0022,0.0021,-0.0046,-0.0057,-0.0092,-0.0152,-0.0167,-0.0174,-0.0178,-0.0309,-0.0309,-0.031,-0.0266,-0.0263,-0.0261,0,0,0,0,0,0.0221,0.0196,0.0191,0.018,0.0109,0.0061,0.005,0.002,0.0021,0.0007,-0.003,-0.0055,-0.0165,-0.0157,-0.0175,-0.0184,-0.0308,-0.0309,-0.031,-0.0267,-0.0264,-0.0261,0,0,0,0,0,0,0.0231,0.0189,0.0183,0.0143,0.011,0.0056,0.0033,0.0021,-0.0021,-0.0023,-0.0069,-0.0084,-0.0133,-0.0166,-0.0156,-0.0226,-0.0238,-0.0242,-0.0199,-0.0197,-0.0195,-0.017,-0.0183,0,0,0,0,0,0.0233,0.021,0.0168,0.0136,0.0121,0.0081,0.0058,0.0039,-0.0003,-0.002,-0.0061,-0.0106,-0.0152,-0.0178,-0.0228,-0.0274,-0.0296,-0.0288,-0.0286,-0.0284,-0.0275,-0.0309,-0.0308,-0.0312,-0.0312,-0.0312,0,0,0.0228,0.02,0.0187,0.0139,0.0109,0.0089,0.0069,0.0031,0.002,-0.003,-0.0063,-0.0108,-0.0164,-0.0209,-0.0233,-0.0236,-0.0296,-0.0285,-0.0282,-0.0274,-0.0309,-0.0309,-0.0308,-0.0313,-0.0313,-0.0313,0,0,0.0211,0.0184,0.0167,0.0144,0.0105,0.0083,0.0078,0.003,0.0015,-0.0026,-0.0058,-0.01,-0.0174,-0.0207,-0.0234,-0.0253,-0.0287,-0.027,-0.0239,-0.0272,-0.0271,-0.0271,-0.0301,-0.0304,-0.0264,-0.0264,-0.0264,0,0.0207,0.0185,0.0152,0.0134,0.0124,0.0088,0.0079,0.005,-0.0005,-0.0014,-0.0029,-0.0119,-0.017,-0.0212,-0.0215,-0.0248,-0.0269,-0.0242,-0.0267,-0.0268,-0.0268,-0.03,-0.0303,-0.0262,-0.0263,-0.0263,-0.0263,0,0.0186,0.0174,0.0158,0.0138,0.0119,0.0099,0.0071,0.0052,0.0034,0.001,-0.0034,-0.01,-0.0144,-0.0171,-0.0202,-0.023,-0.0245,-0.0262,-0.0268,-0.0265,-0.0299,-0.0303,-0.0259,-0.026,-0.0261,-0.0261,0,0,0.0168,0.0152,0.015,0.016,0.0127,0.0113,0.0096,0.0076,0.0081,0.0022,0.002,-0.0064,-0.0088,-0.012,-0.0165,-0.0196,-0.0227,-0.0224,-0.0227,-0.0244,-0.0296,-0.0291,-0.0296,-0.0245,-0.0246,-0.0246,-0.0318,0,0.0168,0.0163,0.015,0.0157,0.0158,0.0137,0.0135,0.0113,0.0089,0.0074,0.0011,-0.0017,-0.0071,-0.0085,-0.0129,-0.0201,-0.0236,-0.0205,-0.0305,-0.0308,-0.0296,-0.03,-0.0248,-0.0322,-0.0323,-0.0324,-0.0324,0,0.0162,0.0165,0.0177,0.0197,0.0196,0.0196,0.0205,0.0199,0.0166,0.0148,0.0107,0.0059,0.0,-0.004,-0.0158,-0.0133,-0.0208,-0.0266,-0.0271,-0.0282,-0.0311,-0.0328,-0.0333,-0.0333,-0.0332,-0.0331,-0.0331,0,0.0189,0.019,0.0213,0.0214,0.0219,0.023,0.0238,0.0222,0.0238,0.0204,0.0207,0.0121,0.0092,-0.0014,-0.0141,-0.0147,-0.0266,-0.0291,-0.0361,-0.0361,-0.0364,-0.0363,-0.0372,-0.0372,-0.0371,-0.0371,-0.0371,0,0.0201,0.0219,0.0232,0.0244,0.0283,0.0275,0.0314,0.0307,0.0312,0.0344,0.0258,0.0254,0.01,0.001,-0.0116,-0.0248,-0.0251,-0.0352,-0.0378,-0.0345,-0.0341,-0.0368,-0.0366,-0.0374,-0.0373,-0.0373,-0.0372,0,0.0221,0.0228,0.0259,0.0283,0.0298,0.0328,0.0378,0.0408,0.0405,0.0445,0.0443,0.0357,0.0242,0.0078,-0.0094,-0.02,-0.0337,-0.0386,-0.0331,-0.0353,-0.0419,-0.0414,-0.0466,-0.0467,-0.0467,-0.0467,-0.0467,0,0.0224,0.0243,0.0295,0.0327,0.034,0.0389,0.043,0.0453,0.0494,0.0512,0.0535,0.044,0.0362,0.0131,-0.006,-0.03,-0.0339,-0.0413,-0.0426,-0.0408,-0.0428,-0.0423,-0.0418,-0.0468,-0.0468,-0.0468,-0.0468,0,0.0226,0.0253,0.0283,0.0359,0.041,0.0479,0.0541,0.0583,0.0625,0.0624,0.063,0.0507,0.0372,0.016,-0.0029,-0.0206,-0.0367,-0.0418,-0.0419,-0.0431,-0.0411,-0.0429,-0.0424,-0.0469,-0.0469,-0.0469,-0.0469,0,0.0223,0.0253,0.0306,0.038,0.0456,0.0548,0.058,0.0639,0.0683,0.0711,0.0711,0.0563,0.0475,0.0209,0.0035,-0.014,-0.0193,-0.0252,-0.0263,-0.0264,-0.0194,-0.0137,-0.0128,0,0,0,0,0,0.0207,0.0255,0.0323,0.0411,0.05,0.0557,0.0645,0.0677,0.0724,0.0751,0.0742,0.0624,0.0379,0.0257,0.0087,-0.0008,-0.0251,-0.0217,-0.0331,-0.0475,-0.0474,-0.0426,0,0,0,0,0,0,0.0191,0.0251,0.0313,0.0432,0.051,0.0613,0.068,0.0719,0.0732,0.0753,0.0624,0.058,0.0327,0.0487,0.0087,0.003,-0.0067,-0.0333,-0.0337,-0.0476,-0.0475,-0.0474,-0.0424,0,0,0,0,0]}]]